| time (UTC) | temp F | wind direction | speed MPH | gust MPH | rain 1hr in | rain 24hr in | rain mn in | humidity % | barometer mb |
| 20260902135003 | 82 | 218 | 3.0 | 5.0 | 0.00 | 0.00 | 0.00 | 71 | 1017.7 |
| 20260902134503 | 82 | 222 | 3.0 | 5.0 | 0.00 | 0.00 | 0.00 | 70 | 1017.8 |
| 20260902134003 | 82 | 213 | 3.0 | 4.0 | 0.00 | 0.00 | 0.00 | 69 | 1017.8 |
| 20260902133503 | 84 | 212 | 3.0 | 5.0 | 0.00 | 0.00 | 0.00 | 70 | 1017.8 |
| 20260902133003 | 83 | 216 | 3.0 | 6.0 | 0.00 | 0.00 | 0.00 | 71 | 1017.8 |
| 20260902132503 | 82 | 215 | 3.0 | 6.0 | 0.00 | 0.00 | 0.00 | 70 | 1017.8 |
| 20260902132003 | 83 | 213 | 3.0 | 6.0 | 0.00 | 0.00 | 0.00 | 71 | 1017.9 |
| 20260902131503 | 82 | 218 | 3.0 | 6.0 | 0.00 | 0.00 | 0.00 | 71 | 1017.9 |
| 20260902131003 | 82 | 221 | 3.0 | 5.0 | 0.00 | 0.00 | 0.00 | 71 | 1017.9 |
| 20260902130503 | 82 | 223 | 3.0 | 6.0 | 0.00 | 0.00 | 0.00 | 71 | 1017.9 |
| 20260902130004 | 82 | 219 | 3.0 | 6.0 | 0.00 | 0.00 | 0.00 | 69 | 1018.0 |
| 20260902125503 | 83 | 220 | 3.0 | 5.0 | 0.00 | 0.00 | 0.00 | 70 | 1018.1 |
| 20260902125003 | 82 | 221 | 3.0 | 5.0 | 0.00 | 0.00 | 0.00 | 71 | 1018.1 |
| 20260902124503 | 83 | 222 | 3.0 | 5.0 | 0.00 | 0.00 | 0.00 | 70 | 1018.2 |
| 20260902124003 | 83 | 224 | 3.0 | 5.0 | 0.00 | 0.00 | 0.00 | 70 | 1018.2 |
| 20260902123503 | 84 | 220 | 3.0 | 5.0 | 0.00 | 0.00 | 0.00 | 71 | 1018.3 |
| 20260902123003 | 83 | 218 | 3.0 | 5.0 | 0.00 | 0.00 | 0.00 | 71 | 1018.3 |
| 20260902122503 | 83 | 216 | 3.0 | 5.0 | 0.00 | 0.00 | 0.00 | 72 | 1018.3 |
| 20260902122003 | 82 | 218 | 3.0 | 5.0 | 0.00 | 0.00 | 0.00 | 72 | 1018.4 |
| 20260902121503 | 82 | 222 | 2.0 | 5.0 | 0.00 | 0.00 | 0.00 | 71 | 1018.4 |
| 20260902121003 | 83 | 221 | 2.0 | 5.0 | 0.00 | 0.00 | 0.00 | 72 | 1018.4 |
| 20260902120503 | 82 | 220 | 2.0 | 5.0 | 0.00 | 0.00 | 0.00 | 72 | 1018.5 |
| 20260902120004 | 82 | 216 | 2.0 | 4.0 | 0.00 | 0.00 | 0.00 | 73 | 1018.4 |
| 20260902115503 | 82 | 220 | 2.0 | 4.0 | 0.00 | 0.00 | 0.00 | 74 | 1018.4 |
| 20260902115003 | 81 | 225 | 3.0 | 4.0 | 0.00 | 0.00 | 0.00 | 74 | 1018.5 |
| 20260902114503 | 80 | 224 | 3.0 | 4.0 | 0.00 | 0.00 | 0.00 | 73 | 1018.6 |
| 20260902114003 | 81 | 221 | 3.0 | 4.0 | 0.00 | 0.00 | 0.00 | 72 | 1018.5 |
| 20260902113503 | 82 | 216 | 2.0 | 4.0 | 0.00 | 0.00 | 0.00 | 73 | 1018.5 |
| 20260902113003 | 82 | 215 | 2.0 | 4.0 | 0.00 | 0.00 | 0.00 | 74 | 1018.6 |
| 20260902112503 | 81 | 221 | 2.0 | 4.0 | 0.00 | 0.00 | 0.00 | 73 | 1018.6 |
| 20260902112003 | 81 | 228 | 3.0 | 4.0 | 0.00 | 0.00 | 0.00 | 73 | 1018.6 |
| 20260902111503 | 81 | 223 | 3.0 | 4.0 | 0.00 | 0.00 | 0.00 | 74 | 1018.7 |
| 20260902111003 | 81 | 222 | 3.0 | 4.0 | 0.00 | 0.00 | 0.00 | 74 | 1018.7 |
| 20260902110503 | 81 | 220 | 3.0 | 5.0 | 0.00 | 0.00 | 0.00 | 74 | 1018.7 |
| 20260902110005 | 80 | 219 | 3.0 | 5.0 | 0.00 | 0.00 | 0.00 | 74 | 1018.7 |
| 20260902105504 | 81 | 227 | 3.0 | 5.0 | 0.00 | 0.00 | 0.00 | 74 | 1018.8 |
| 20260902105003 | 81 | 228 | 3.0 | 5.0 | 0.00 | 0.00 | 0.00 | 74 | 1018.8 |
| 20260902104504 | 81 | 227 | 3.0 | 5.0 | 0.00 | 0.00 | 0.00 | 74 | 1018.9 |
| 20260902104003 | 80 | 229 | 3.0 | 5.0 | 0.00 | 0.00 | 0.00 | 74 | 1019.0 |
| 20260902103503 | 80 | 227 | 3.0 | 5.0 | 0.00 | 0.00 | 0.00 | 74 | 1019.0 |
| 20260902103003 | 81 | 223 | 3.0 | 6.0 | 0.00 | 0.00 | 0.00 | 74 | 1019.1 |
| 20260902102503 | 81 | 225 | 2.0 | 6.0 | 0.00 | 0.00 | 0.00 | 74 | 1019.1 |
| 20260902102003 | 81 | 227 | 2.0 | 5.0 | 0.00 | 0.00 | 0.00 | 74 | 1019.1 |
| 20260902101503 | 81 | 226 | 3.0 | 5.0 | 0.00 | 0.00 | 0.00 | 74 | 1019.0 |
| 20260902101004 | 81 | 231 | 3.0 | 4.0 | 0.00 | 0.00 | 0.00 | 75 | 1019.0 |
| 20260902100503 | 81 | 228 | 3.0 | 5.0 | 0.00 | 0.00 | 0.00 | 75 | 1019.0 |
| 20260902100004 | 81 | 227 | 3.0 | 5.0 | 0.00 | 0.00 | 0.00 | 74 | 1019.0 |
| 20260902095503 | 82 | 234 | 3.0 | 5.0 | 0.00 | 0.00 | 0.00 | 75 | 1019.1 |
| 20260902095003 | 81 | 226 | 3.0 | 4.0 | 0.00 | 0.00 | 0.00 | 75 | 1019.1 |
| 20260902094503 | 80 | 221 | 3.0 | 5.0 | 0.00 | 0.00 | 0.00 | 75 | 1019.0 |
| 20260902094003 | 81 | 224 | 3.0 | 5.0 | 0.00 | 0.00 | 0.00 | 76 | 1019.0 |
| 20260902093503 | 80 | 224 | 3.0 | 4.0 | 0.00 | 0.00 | 0.00 | 76 | 1019.0 |
| 20260902093003 | 81 | 223 | 3.0 | 5.0 | 0.00 | 0.00 | 0.00 | 76 | 1019.0 |
| 20260902092506 | 80 | 221 | 3.0 | 5.0 | 0.00 | 0.00 | 0.00 | 76 | 1019.0 |
| 20260902092003 | 80 | 223 | 3.0 | 6.0 | 0.00 | 0.00 | 0.00 | 76 | 1019.0 |
| 20260902091503 | 80 | 221 | 3.0 | 6.0 | 0.00 | 0.00 | 0.00 | 76 | 1019.1 |
| 20260902091003 | 80 | 218 | 2.0 | 5.0 | 0.00 | 0.00 | 0.00 | 76 | 1019.0 |
| 20260902090503 | 80 | 219 | 2.0 | 4.0 | 0.00 | 0.00 | 0.00 | 76 | 1019.0 |
| 20260902085503 | 80 | 220 | 2.0 | 5.0 | 0.00 | 0.00 | 0.00 | 77 | 1018.9 |
| 20260902085003 | 80 | 212 | 2.0 | 5.0 | 0.00 | 0.00 | 0.00 | 77 | 1019.0 |
| 20260902084503 | 79 | 209 | 2.0 | 4.0 | 0.00 | 0.00 | 0.00 | 77 | 1019.0 |
| 20260902084003 | 79 | 217 | 2.0 | 4.0 | 0.00 | 0.00 | 0.00 | 77 | 1018.9 |
| 20260902083504 | 79 | 220 | 2.0 | 5.0 | 0.00 | 0.00 | 0.00 | 78 | 1018.8 |
| 20260902083003 | 79 | 219 | 2.0 | 5.0 | 0.00 | 0.00 | 0.00 | 77 | 1018.8 |
| 20260902082503 | 79 | 221 | 2.0 | 4.0 | 0.00 | 0.00 | 0.00 | 78 | 1018.8 |
| 20260902082003 | 79 | 220 | 2.0 | 4.0 | 0.00 | 0.00 | 0.00 | 78 | 1018.6 |
| 20260902081503 | 79 | 222 | 1.0 | 4.0 | 0.00 | 0.00 | 0.00 | 78 | 1018.6 |
| 20260902081003 | 79 | 227 | 0.0 | 4.0 | 0.00 | 0.00 | 0.00 | 78 | 1018.5 |
| 20260902080503 | 78 | 0 | 0.0 | 3.0 | 0.00 | 0.00 | 0.00 | 78 | 1018.4 |
| 20260902080004 | 78 | 0 | 0.0 | 0.0 | 0.00 | 0.00 | 0.00 | 78 | 1018.4 |
| 20260902075503 | 78 | 0 | 0.0 | 0.0 | 0.00 | 0.00 | 0.00 | 79 | 1018.3 |
| 20260902075004 | 78 | 0 | 0.0 | 0.0 | 0.00 | 0.00 | 0.00 | 79 | 1018.3 |
| 20260902074503 | 77 | 0 | 0.0 | 0.0 | 0.00 | 0.00 | 0.00 | 79 | 1018.2 |
| 20260902074003 | 77 | 0 | 0.0 | 0.0 | 0.00 | 0.00 | 0.00 | 79 | 1018.2 |
| 20260902073503 | 77 | 0 | 0.0 | 0.0 | 0.00 | 0.00 | 0.00 | 79 | 1018.2 |
| 20260902073003 | 77 | 0 | 0.0 | 0.0 | 0.00 | 0.00 | 0.00 | 79 | 1018.2 |
| 20260902072503 | 77 | 0 | 0.0 | 0.0 | 0.00 | 0.00 | 0.00 | 79 | 1018.2 |
| 20260902072003 | 77 | 0 | 0.0 | 0.0 | 0.00 | 0.00 | 0.00 | 79 | 1018.1 |
| 20260902071503 | 77 | 0 | 0.0 | 0.0 | 0.00 | 0.00 | 0.00 | 79 | 1018.1 |
| 20260902071003 | 77 | 0 | 0.0 | 0.0 | 0.00 | 0.00 | 0.00 | 79 | 1018.1 |
| 20260902070503 | 77 | 0 | 0.0 | 0.0 | 0.00 | 0.00 | 0.00 | 79 | 1018.1 |
| 20260902070006 | 77 | 0 | 0.0 | 0.0 | 0.00 | 0.00 | 0.00 | 79 | 1018.2 |
| 20260902065504 | 76 | 0 | 0.0 | 0.0 | 0.00 | 0.00 | 0.00 | 80 | 1018.2 |
| 20260902065003 | 76 | 0 | 0.0 | 0.0 | 0.00 | 0.00 | 0.00 | 80 | 1018.2 |
| 20260902064503 | 76 | 0 | 0.0 | 0.0 | 0.00 | 0.00 | 0.00 | 80 | 1018.1 |
| 20260902064003 | 76 | 0 | 0.0 | 0.0 | 0.00 | 0.00 | 0.00 | 79 | 1018.2 |
| 20260902063503 | 76 | 0 | 0.0 | 0.0 | 0.00 | 0.00 | 0.00 | 79 | 1018.1 |
| 20260902063003 | 76 | 0 | 0.0 | 0.0 | 0.00 | 0.00 | 0.00 | 79 | 1018.1 |
| 20260902062503 | 76 | 0 | 0.0 | 0.0 | 0.00 | 0.00 | 0.00 | 79 | 1018.1 |
| 20260902062003 | 76 | 0 | 0.0 | 0.0 | 0.00 | 0.00 | 0.00 | 79 | 1018.2 |
| 20260902061612 | 76 | 0 | 0.0 | 1.0 | 0.00 | 0.00 | 0.00 | 79 | 1018.1 |
| 20260902061003 | 76 | 11 | 0.0 | 1.0 | 0.00 | 0.00 | 0.00 | 79 | 1018.2 |
| 20260902060503 | 76 | 12 | 1.0 | 2.0 | 0.00 | 0.00 | 0.00 | 80 | 1018.2 |
| 20260902060003 | 76 | 32 | 1.0 | 2.0 | 0.00 | 0.00 | 0.00 | 80 | 1018.1 |
| 20260902055504 | 75 | 33 | 1.0 | 3.0 | 0.00 | 0.00 | 0.00 | 80 | 1018.0 |
| 20260902055003 | 75 | 30 | 2.0 | 3.0 | 0.00 | 0.00 | 0.00 | 80 | 1018.1 |
| 20260902054503 | 75 | 34 | 2.0 | 3.0 | 0.00 | 0.00 | 0.00 | 79 | 1018.1 |
| 20260902054003 | 75 | 36 | 2.0 | 3.0 | 0.00 | 0.00 | 0.00 | 79 | 1017.9 |
| 20260902053503 | 75 | 35 | 3.0 | 5.0 | 0.00 | 0.00 | 0.00 | 79 | 1017.8 |
| 20260902053004 | 75 | 38 | 3.0 | 6.0 | 0.00 | 0.00 | 0.00 | 79 | 1017.7 |
| 20260902052503 | 74 | 37 | 3.0 | 6.0 | 0.00 | 0.00 | 0.00 | 79 | 1017.7 |
| 20260902052003 | 75 | 34 | 3.0 | 6.0 | 0.00 | 0.00 | 0.00 | 79 | 1017.6 |
| 20260902051503 | 74 | 38 | 2.0 | 5.0 | 0.00 | 0.00 | 0.00 | 79 | 1017.6 |
| 20260902051003 | 74 | 41 | 2.0 | 5.0 | 0.00 | 0.00 | 0.00 | 79 | 1017.7 |
| 20260902050504 | 74 | 39 | 2.0 | 4.0 | 0.00 | 0.00 | 0.00 | 79 | 1017.6 |
| 20260902050006 | 75 | 36 | 2.0 | 4.0 | 0.00 | 0.00 | 0.00 | 79 | 1017.6 |
| 20260902045504 | 74 | 35 | 2.0 | 3.0 | 0.00 | 0.00 | 0.00 | 79 | 1017.7 |
| 20260902045003 | 74 | 36 | 2.0 | 3.0 | 0.00 | 0.00 | 0.00 | 79 | 1017.6 |
| 20260902044503 | 74 | 35 | 2.0 | 4.0 | 0.00 | 0.00 | 0.00 | 78 | 1017.6 |
| 20260902044003 | 75 | 37 | 2.0 | 4.0 | 0.00 | 0.00 | 0.00 | 78 | 1017.7 |
| 20260902043503 | 74 | 37 | 2.0 | 4.0 | 0.00 | 0.00 | 0.00 | 78 | 1017.6 |
| 20260902043003 | 74 | 35 | 2.0 | 3.0 | 0.00 | 0.00 | 0.00 | 78 | 1017.6 |
| 20260902042503 | 74 | 29 | 2.0 | 4.0 | 0.00 | 0.00 | 0.00 | 77 | 1017.6 |
| 20260902042003 | 74 | 23 | 3.0 | 4.0 | 0.00 | 0.00 | 0.00 | 77 | 1017.6 |
| 20260902041504 | 74 | 29 | 4.0 | 5.0 | 0.00 | 0.00 | 0.00 | 77 | 1017.5 |
| 20260902041003 | 74 | 37 | 4.0 | 6.0 | 0.00 | 0.00 | 0.00 | 77 | 1017.6 |
| 20260902040503 | 74 | 43 | 3.0 | 6.0 | 0.00 | 0.00 | 0.00 | 77 | 1017.6 |
| 20260902040003 | 74 | 42 | 2.0 | 6.0 | 0.00 | 0.00 | 0.00 | 77 | 1017.5 |
| 20260902035503 | 75 | 37 | 2.0 | 5.0 | 0.00 | 0.00 | 0.00 | 77 | 1017.4 |
| 20260902035003 | 75 | 35 | 2.0 | 4.0 | 0.00 | 0.00 | 0.00 | 77 | 1017.5 |
| 20260902034503 | 75 | 34 | 2.0 | 4.0 | 0.00 | 0.00 | 0.00 | 77 | 1017.4 |
| 20260902034003 | 75 | 34 | 3.0 | 4.0 | 0.00 | 0.00 | 0.00 | 76 | 1017.4 |
| 20260902033503 | 75 | 32 | 3.0 | 5.0 | 0.00 | 0.00 | 0.00 | 76 | 1017.4 |
| 20260902033003 | 75 | 31 | 3.0 | 5.0 | 0.00 | 0.00 | 0.00 | 76 | 1017.5 |
| 20260902032503 | 74 | 34 | 3.0 | 5.0 | 0.00 | 0.00 | 0.00 | 76 | 1017.5 |
| 20260902032003 | 74 | 42 | 3.0 | 8.0 | 0.00 | 0.00 | 0.00 | 76 | 1017.6 |
| 20260902031503 | 74 | 44 | 3.0 | 8.0 | 0.00 | 0.00 | 0.00 | 76 | 1017.5 |
| 20260902031003 | 74 | 40 | 3.0 | 5.0 | 0.00 | 0.00 | 0.00 | 76 | 1017.5 |
| 20260902030503 | 74 | 35 | 3.0 | 6.0 | 0.00 | 0.00 | 0.00 | 76 | 1017.5 |
| 20260902030004 | 74 | 37 | 4.0 | 6.0 | 0.00 | 0.00 | 0.00 | 76 | 1017.5 |
| 20260902025503 | 74 | 38 | 4.0 | 6.0 | 0.00 | 0.00 | 0.00 | 76 | 1017.5 |
| 20260902025003 | 74 | 35 | 3.0 | 7.0 | 0.00 | 0.00 | 0.00 | 76 | 1017.5 |
| 20260902024503 | 74 | 32 | 3.0 | 7.0 | 0.00 | 0.00 | 0.00 | 76 | 1017.4 |
| 20260902024003 | 74 | 35 | 3.0 | 5.0 | 0.00 | 0.00 | 0.00 | 76 | 1017.6 |
| 20260902023503 | 75 | 37 | 3.0 | 5.0 | 0.00 | 0.00 | 0.00 | 75 | 1017.6 |
| 20260902023003 | 75 | 39 | 2.0 | 5.0 | 0.00 | 0.00 | 0.00 | 75 | 1017.5 |
| 20260902022503 | 75 | 41 | 2.0 | 5.0 | 0.00 | 0.00 | 0.00 | 75 | 1017.5 |
| 20260902022003 | 75 | 35 | 3.0 | 5.0 | 0.00 | 0.00 | 0.00 | 75 | 1017.5 |
| 20260902021504 | 74 | 33 | 3.0 | 7.0 | 0.00 | 0.00 | 0.00 | 75 | 1017.5 |
| 20260902021003 | 74 | 31 | 3.0 | 7.0 | 0.00 | 0.00 | 0.00 | 75 | 1017.5 |
| 20260902020503 | 75 | 32 | 3.0 | 5.0 | 0.00 | 0.00 | 0.00 | 75 | 1017.6 |
| 20260902020004 | 74 | 34 | 3.0 | 7.0 | 0.00 | 0.00 | 0.00 | 74 | 1017.6 |
| 20260902015503 | 74 | 34 | 3.0 | 7.0 | 0.00 | 0.00 | 0.00 | 74 | 1017.6 |
| 20260902015003 | 75 | 35 | 3.0 | 6.0 | 0.00 | 0.00 | 0.00 | 74 | 1017.5 |
| 20260902014503 | 75 | 35 | 4.0 | 5.0 | 0.00 | 0.00 | 0.00 | 74 | 1017.6 |
| 20260902014003 | 75 | 35 | 4.0 | 8.0 | 0.00 | 0.00 | 0.00 | 74 | 1017.6 |
| 20260902013503 | 74 | 41 | 4.0 | 8.0 | 0.00 | 0.00 | 0.00 | 74 | 1017.6 |
| 20260902013003 | 74 | 44 | 3.0 | 7.0 | 0.00 | 0.00 | 0.00 | 74 | 1017.5 |
| 20260902012504 | 74 | 42 | 3.0 | 5.0 | 0.00 | 0.00 | 0.00 | 74 | 1017.5 |
| 20260902012003 | 74 | 42 | 3.0 | 6.0 | 0.00 | 0.00 | 0.00 | 73 | 1017.4 |
| 20260902011503 | 74 | 42 | 3.0 | 6.0 | 0.00 | 0.00 | 0.00 | 73 | 1017.4 |
| 20260902011003 | 74 | 39 | 3.0 | 5.0 | 0.00 | 0.00 | 0.00 | 73 | 1017.5 |
| 20260902010503 | 74 | 37 | 3.0 | 5.0 | 0.00 | 0.00 | 0.00 | 74 | 1017.4 |
| 20260902010004 | 74 | 37 | 3.0 | 6.0 | 0.00 | 0.00 | 0.00 | 73 | 1017.4 |
| 20260902005503 | 74 | 39 | 2.0 | 6.0 | 0.00 | 0.00 | 0.00 | 74 | 1017.4 |
| 20260902005003 | 74 | 40 | 1.0 | 6.0 | 0.00 | 0.00 | 0.00 | 73 | 1017.4 |
| 20260902004504 | 74 | 38 | 1.0 | 5.0 | 0.00 | 0.00 | 0.00 | 74 | 1017.4 |
| 20260902004003 | 74 | 32 | 1.0 | 5.0 | 0.00 | 0.00 | 0.00 | 73 | 1017.5 |
| 20260902003503 | 74 | 31 | 2.0 | 4.0 | 0.00 | 0.00 | 0.00 | 73 | 1017.6 |
| 20260902003003 | 74 | 33 | 3.0 | 5.0 | 0.00 | 0.00 | 0.00 | 74 | 1017.6 |
| 20260902002503 | 74 | 35 | 3.0 | 5.0 | 0.00 | 0.00 | 0.00 | 74 | 1017.7 |
| 20260902002003 | 74 | 37 | 2.0 | 5.0 | 0.00 | 0.00 | 0.00 | 75 | 1017.8 |
| 20260902001503 | 74 | 31 | 1.0 | 5.0 | 0.00 | 0.00 | 0.00 | 75 | 1017.8 |
| 20260902001003 | 74 | 9 | 1.0 | 3.0 | 0.00 | 0.00 | 0.00 | 75 | 1017.8 |
| 20260902000503 | 74 | 358 | 2.0 | 4.0 | 0.00 | 0.00 | 0.00 | 76 | 1017.7 |
| 20260902000004 | 74 | 26 | 2.0 | 6.0 | 0.00 | 0.00 | 0.00 | 76 | 1017.7 |
| 20260901235503 | 74 | 27 | 1.0 | 6.0 | 0.00 | 0.00 | 0.00 | 76 | 1017.7 |
| 20260901235003 | 74 | 17 | 1.0 | 5.0 | 0.00 | 0.00 | 0.00 | 76 | 1017.7 |
| 20260901234503 | 75 | 29 | 1.0 | 3.0 | 0.00 | 0.00 | 0.00 | 76 | 1017.7 |
| 20260901234003 | 75 | 32 | 2.0 | 4.0 | 0.00 | 0.00 | 0.00 | 76 | 1017.8 |
| 20260901233503 | 75 | 25 | 3.0 | 7.0 | 0.00 | 0.00 | 0.00 | 76 | 1017.7 |
| 20260901233003 | 75 | 30 | 3.0 | 7.0 | 0.00 | 0.00 | 0.00 | 76 | 1017.7 |
| 20260901232503 | 75 | 40 | 3.0 | 7.0 | 0.00 | 0.00 | 0.00 | 76 | 1017.8 |
| 20260901232003 | 75 | 42 | 3.0 | 7.0 | 0.00 | 0.00 | 0.00 | 76 | 1017.8 |
| 20260901231503 | 75 | 44 | 3.0 | 6.0 | 0.00 | 0.00 | 0.00 | 76 | 1017.8 |
| 20260901231003 | 75 | 38 | 3.0 | 5.0 | 0.00 | 0.00 | 0.00 | 76 | 1017.8 |
| 20260901230503 | 75 | 34 | 3.0 | 5.0 | 0.00 | 0.00 | 0.00 | 76 | 1017.8 |
| 20260901230004 | 74 | 35 | 3.0 | 6.0 | 0.00 | 0.00 | 0.00 | 76 | 1017.8 |
| 20260901225503 | 74 | 38 | 3.0 | 6.0 | 0.00 | 0.00 | 0.00 | 76 | 1017.9 |
| 20260901225003 | 74 | 40 | 3.0 | 6.0 | 0.00 | 0.00 | 0.00 | 76 | 1017.9 |
| 20260901224503 | 74 | 42 | 3.0 | 6.0 | 0.00 | 0.00 | 0.00 | 76 | 1018.0 |
| 20260901224003 | 75 | 39 | 2.0 | 7.0 | 0.00 | 0.00 | 0.00 | 76 | 1017.9 |
| 20260901223504 | 75 | 35 | 2.0 | 7.0 | 0.00 | 0.00 | 0.00 | 77 | 1017.9 |
| 20260901223003 | 75 | 34 | 3.0 | 5.0 | 0.00 | 0.00 | 0.00 | 77 | 1018.0 |
| 20260901222503 | 75 | 32 | 4.0 | 7.0 | 0.00 | 0.00 | 0.00 | 78 | 1018.0 |
| 20260901222003 | 75 | 39 | 4.0 | 7.0 | 0.00 | 0.00 | 0.00 | 78 | 1017.9 |
| 20260901221503 | 75 | 41 | 3.0 | 7.0 | 0.00 | 0.00 | 0.00 | 78 | 1017.9 |
| 20260901221003 | 75 | 37 | 3.0 | 6.0 | 0.00 | 0.00 | 0.00 | 78 | 1017.9 |
| 20260901220503 | 75 | 36 | 3.0 | 6.0 | 0.00 | 0.00 | 0.00 | 78 | 1017.8 |
| 20260901220006 | 75 | 35 | 3.0 | 6.0 | 0.00 | 0.00 | 0.00 | 78 | 1017.8 |
| 20260901215503 | 75 | 30 | 3.0 | 6.0 | 0.00 | 0.00 | 0.00 | 78 | 1017.7 |
| 20260901215003 | 75 | 33 | 3.0 | 6.0 | 0.00 | 0.00 | 0.00 | 79 | 1017.8 |
| 20260901214503 | 75 | 35 | 2.0 | 6.0 | 0.00 | 0.00 | 0.00 | 79 | 1017.7 |
| 20260901214003 | 75 | 32 | 2.0 | 5.0 | 0.00 | 0.00 | 0.00 | 79 | 1017.8 |
| 20260901213503 | 75 | 34 | 2.0 | 5.0 | 0.00 | 0.00 | 0.00 | 79 | 1017.9 |
| 20260901213003 | 75 | 36 | 1.0 | 5.0 | 0.00 | 0.00 | 0.00 | 79 | 1017.9 |
| 20260901212503 | 75 | 33 | 1.0 | 4.0 | 0.00 | 0.00 | 0.00 | 79 | 1017.9 |
| 20260901212003 | 75 | 32 | 2.0 | 4.0 | 0.00 | 0.00 | 0.00 | 79 | 1017.9 |
| 20260901211503 | 76 | 40 | 2.0 | 5.0 | 0.00 | 0.00 | 0.00 | 79 | 1017.8 |
| 20260901211004 | 76 | 36 | 1.0 | 5.0 | 0.00 | 0.00 | 0.00 | 79 | 1017.8 |
| 20260901210503 | 76 | 29 | 1.0 | 4.0 | 0.00 | 0.00 | 0.00 | 79 | 1017.8 |
| 20260901210004 | 76 | 30 | 1.0 | 4.0 | 0.00 | 0.00 | 0.00 | 79 | 1017.9 |
| 20260901205503 | 76 | 28 | 1.0 | 3.0 | 0.00 | 0.00 | 0.00 | 79 | 1017.8 |
| 20260901205003 | 76 | 34 | 1.0 | 3.0 | 0.00 | 0.00 | 0.00 | 79 | 1017.8 |
| 20260901204503 | 76 | 30 | 2.0 | 3.0 | 0.00 | 0.00 | 0.00 | 79 | 1017.9 |
| 20260901204003 | 76 | 30 | 2.0 | 4.0 | 0.00 | 0.00 | 0.00 | 79 | 1017.8 |
| 20260901203503 | 76 | 33 | 1.0 | 4.0 | 0.00 | 0.00 | 0.00 | 78 | 1017.9 |
| 20260901203003 | 76 | 32 | 1.0 | 4.0 | 0.00 | 0.00 | 0.00 | 78 | 1017.9 |
| 20260901202503 | 76 | 29 | 1.0 | 4.0 | 0.00 | 0.00 | 0.00 | 78 | 1017.9 |
| 20260901202003 | 77 | 25 | 1.0 | 4.0 | 0.00 | 0.00 | 0.00 | 78 | 1017.8 |
| 20260901201503 | 77 | 31 | 1.0 | 5.0 | 0.00 | 0.00 | 0.00 | 78 | 1017.8 |
| 20260901201003 | 77 | 36 | 0.0 | 5.0 | 0.00 | 0.00 | 0.00 | 78 | 1017.8 |
| 20260901200503 | 77 | 27 | 1.0 | 3.0 | 0.00 | 0.00 | 0.00 | 78 | 1017.9 |
| 20260901200004 | 77 | 33 | 1.0 | 3.0 | 0.00 | 0.00 | 0.00 | 78 | 1017.9 |
| 20260901195503 | 77 | 31 | 1.0 | 5.0 | 0.00 | 0.00 | 0.00 | 77 | 1017.9 |
| 20260901195003 | 77 | 30 | 0.0 | 5.0 | 0.00 | 0.00 | 0.00 | 77 | 1017.8 |
| 20260901194503 | 77 | 24 | 1.0 | 2.0 | 0.00 | 0.00 | 0.00 | 77 | 1017.8 |
| 20260901194003 | 77 | 22 | 1.0 | 4.0 | 0.00 | 0.00 | 0.00 | 77 | 1017.7 |
| 20260901193503 | 77 | 23 | 1.0 | 5.0 | 0.00 | 0.00 | 0.00 | 77 | 1017.7 |
| 20260901193003 | 77 | 27 | 1.0 | 5.0 | 0.00 | 0.00 | 0.00 | 77 | 1017.7 |
| 20260901192503 | 77 | 28 | 1.0 | 4.0 | 0.00 | 0.00 | 0.00 | 76 | 1017.7 |
| 20260901192003 | 77 | 23 | 1.0 | 4.0 | 0.00 | 0.00 | 0.00 | 76 | 1017.6 |
| 20260901191503 | 77 | 19 | 1.0 | 4.0 | 0.00 | 0.00 | 0.00 | 76 | 1017.6 |
| 20260901191003 | 77 | 22 | 2.0 | 4.0 | 0.00 | 0.00 | 0.00 | 76 | 1017.4 |
| 20260901190503 | 77 | 24 | 2.0 | 4.0 | 0.00 | 0.00 | 0.00 | 76 | 1017.3 |
| 20260901190003 | 77 | 27 | 2.0 | 4.0 | 0.00 | 0.00 | 0.00 | 75 | 1017.2 |
| 20260901185503 | 77 | 32 | 3.0 | 4.0 | 0.00 | 0.00 | 0.00 | 75 | 1017.1 |
| 20260901185003 | 77 | 33 | 3.0 | 4.0 | 0.00 | 0.00 | 0.00 | 75 | 1017.1 |
| 20260901184503 | 77 | 27 | 2.0 | 4.0 | 0.00 | 0.00 | 0.00 | 75 | 1017.0 |
| 20260901184003 | 77 | 22 | 2.0 | 4.0 | 0.00 | 0.00 | 0.00 | 74 | 1016.9 |
| 20260901183503 | 78 | 21 | 3.0 | 5.0 | 0.00 | 0.00 | 0.00 | 74 | 1016.9 |
| 20260901183004 | 78 | 23 | 3.0 | 6.0 | 0.00 | 0.00 | 0.00 | 74 | 1016.9 |
| 20260901182503 | 78 | 26 | 3.0 | 6.0 | 0.00 | 0.00 | 0.00 | 74 | 1016.9 |
| 20260901182003 | 78 | 24 | 3.0 | 5.0 | 0.00 | 0.00 | 0.00 | 73 | 1016.9 |
| 20260901181503 | 78 | 21 | 3.0 | 5.0 | 0.00 | 0.00 | 0.00 | 73 | 1016.8 |
| 20260901181003 | 78 | 20 | 3.0 | 5.0 | 0.00 | 0.00 | 0.00 | 73 | 1016.8 |
| 20260901180503 | 78 | 21 | 3.0 | 6.0 | 0.00 | 0.00 | 0.00 | 72 | 1016.7 |
| 20260901180004 | 79 | 23 | 3.0 | 6.0 | 0.00 | 0.00 | 0.00 | 72 | 1016.7 |
| 20260901175503 | 79 | 25 | 2.0 | 4.0 | 0.00 | 0.00 | 0.00 | 72 | 1016.7 |
| 20260901175003 | 79 | 19 | 1.0 | 4.0 | 0.00 | 0.00 | 0.00 | 71 | 1016.6 |
| 20260901174503 | 80 | 346 | 0.0 | 4.0 | 0.00 | 0.00 | 0.00 | 71 | 1016.6 |
| 20260901174003 | 80 | 223 | 0.0 | 2.0 | 0.00 | 0.00 | 0.00 | 71 | 1016.5 |
| 20260901173503 | 81 | 223 | 1.0 | 2.0 | 0.00 | 0.00 | 0.00 | 71 | 1016.4 |
| 20260901173003 | 81 | 223 | 2.0 | 3.0 | 0.00 | 0.00 | 0.00 | 71 | 1016.5 |
| 20260901172503 | 81 | 223 | 2.0 | 3.0 | 0.00 | 0.00 | 0.00 | 71 | 1016.5 |
| 20260901172003 | 82 | 223 | 2.0 | 3.0 | 0.00 | 0.00 | 0.00 | 71 | 1016.4 |
| 20260901171503 | 81 | 223 | 2.0 | 3.0 | 0.00 | 0.00 | 0.00 | 70 | 1016.4 |
| 20260901171004 | 82 | 223 | 2.0 | 3.0 | 0.00 | 0.00 | 0.00 | 70 | 1016.4 |
| 20260901170503 | 82 | 222 | 2.0 | 3.0 | 0.00 | 0.00 | 0.00 | 70 | 1016.4 |
| 20260901170004 | 82 | 222 | 2.0 | 3.0 | 0.00 | 0.00 | 0.00 | 70 | 1016.4 |
| 20260901165503 | 82 | 222 | 2.0 | 3.0 | 0.00 | 0.00 | 0.00 | 70 | 1016.5 |
| 20260901165004 | 82 | 222 | 2.0 | 4.0 | 0.00 | 0.00 | 0.00 | 69 | 1016.5 |
| 20260901164503 | 83 | 223 | 2.0 | 4.0 | 0.00 | 0.00 | 0.00 | 69 | 1016.5 |
| 20260901164003 | 83 | 225 | 2.0 | 3.0 | 0.00 | 0.00 | 0.00 | 69 | 1016.6 |
| 20260901163504 | 82 | 224 | 2.0 | 4.0 | 0.00 | 0.00 | 0.00 | 69 | 1016.5 |
| 20260901163003 | 82 | 222 | 2.0 | 4.0 | 0.00 | 0.00 | 0.00 | 68 | 1016.6 |
| 20260901162503 | 83 | 219 | 2.0 | 3.0 | 0.00 | 0.00 | 0.00 | 67 | 1016.5 |
| 20260901162003 | 83 | 218 | 2.0 | 3.0 | 0.00 | 0.00 | 0.00 | 68 | 1016.6 |
| 20260901161503 | 83 | 216 | 2.0 | 4.0 | 0.00 | 0.00 | 0.00 | 67 | 1016.6 |
| 20260901161004 | 84 | 215 | 3.0 | 4.0 | 0.00 | 0.00 | 0.00 | 65 | 1016.6 |
| 20260901160503 | 85 | 213 | 3.0 | 5.0 | 0.00 | 0.00 | 0.00 | 66 | 1016.6 |
| 20260901160004 | 85 | 214 | 3.0 | 5.0 | 0.00 | 0.00 | 0.00 | 67 | 1016.6 |
| 20260901155503 | 85 | 218 | 3.0 | 5.0 | 0.00 | 0.00 | 0.00 | 66 | 1016.7 |
| 20260901155003 | 85 | 220 | 3.0 | 4.0 | 0.00 | 0.00 | 0.00 | 66 | 1016.6 |
| 20260901154503 | 85 | 220 | 3.0 | 5.0 | 0.00 | 0.00 | 0.00 | 66 | 1016.7 |
| 20260901154003 | 85 | 221 | 3.0 | 5.0 | 0.00 | 0.00 | 0.00 | 66 | 1016.7 |
| 20260901153503 | 85 | 218 | 3.0 | 5.0 | 0.00 | 0.00 | 0.00 | 66 | 1016.7 |
| 20260901153003 | 85 | 213 | 3.0 | 4.0 | 0.00 | 0.00 | 0.00 | 66 | 1016.7 |
| 20260901152503 | 85 | 209 | 3.0 | 4.0 | 0.00 | 0.00 | 0.00 | 66 | 1016.8 |
| 20260901152003 | 85 | 209 | 3.0 | 4.0 | 0.00 | 0.00 | 0.00 | 66 | 1016.8 |
| 20260901151503 | 85 | 214 | 3.0 | 4.0 | 0.00 | 0.00 | 0.00 | 66 | 1016.8 |
| 20260901151003 | 85 | 213 | 3.0 | 5.0 | 0.00 | 0.00 | 0.00 | 66 | 1016.9 |
| 20260901150503 | 85 | 212 | 3.0 | 5.0 | 0.00 | 0.00 | 0.00 | 66 | 1016.8 |
| 20260901150003 | 85 | 216 | 4.0 | 5.0 | 0.00 | 0.00 | 0.00 | 66 | 1016.9 |
| 20260901145504 | 85 | 220 | 4.0 | 5.0 | 0.00 | 0.00 | 0.00 | 66 | 1016.9 |
| 20260901145003 | 85 | 218 | 4.0 | 6.0 | 0.00 | 0.00 | 0.00 | 65 | 1016.9 |
| 20260901144503 | 85 | 219 | 4.0 | 6.0 | 0.00 | 0.00 | 0.00 | 65 | 1016.9 |
| 20260901144003 | 85 | 218 | 4.0 | 6.0 | 0.00 | 0.00 | 0.00 | 66 | 1016.9 |
| 20260901143503 | 84 | 214 | 4.0 | 6.0 | 0.00 | 0.00 | 0.00 | 65 | 1017.0 |
| 20260901143003 | 84 | 213 | 4.0 | 6.0 | 0.00 | 0.00 | 0.00 | 67 | 1017.0 |
| 20260901142503 | 84 | 214 | 4.0 | 6.0 | 0.00 | 0.00 | 0.00 | 66 | 1017.1 |
| 20260901142003 | 84 | 217 | 4.0 | 5.0 | 0.00 | 0.00 | 0.00 | 67 | 1017.1 |
| 20260901141503 | 84 | 220 | 4.0 | 6.0 | 0.00 | 0.00 | 0.00 | 67 | 1017.2 |
| 20260901141003 | 85 | 220 | 5.0 | 6.0 | 0.00 | 0.00 | 0.00 | 68 | 1017.3 |
| 20260901140503 | 84 | 214 | 5.0 | 8.0 | 0.00 | 0.00 | 0.00 | 69 | 1017.3 |
| 20260901140004 | 83 | 213 | 5.0 | 8.0 | 0.00 | 0.00 | 0.00 | 69 | 1017.2 |
| 20260901135503 | 84 | 214 | 5.0 | 7.0 | 0.00 | 0.00 | 0.00 | 69 | 1017.2 |